Precipitable_Water
1.54 1.40 1.41 1.27 1.22 1.08 0.94 0.84 0.90 1.04 1.26 1.28 1.23 1.20 1.28 1.33 1.31 1.20 1.17 1.13 1.05 1.00 1.01 1.00 1.11 1.18 1.34 1.32 1.23 1.13 1.05 1.02 1.07
1.59 1.54 1.33 1.31 1.19 1.16 1.14 1.22 1.10 1.01 1.11 1.41 1.33 1.28 1.36 1.37 1.33 1.29 1.23 1.07 1.07 1.04 0.95 0.92 1.01 1.13 1.24 1.19 1.15 1.10 1.05 0.98 1.04
1.56 1.56 1.50 1.28 1.25 1.09 1.19 1.27 1.19 1.16 1.22 1.48 1.48 1.32 1.38 1.38 1.39 1.28 1.26 1.16 1.21 1.14 0.95 0.86 0.89 1.12 1.17 1.14 1.12 1.11 1.07 1.06 1.17
1.57 1.58 1.58 1.50 1.31 1.18 1.03 1.17 1.15 1.15 1.34 1.43 1.45 1.31 1.30 1.34 1.33 1.30 1.21 1.22 1.31 1.26 1.15 0.97 0.84 1.08 1.15 1.19 1.13 1.12 1.09 1.02 1.12
1.62 1.60 1.60 1.61 1.56 1.35 1.14 0.97 1.08 1.17 1.27 1.38 1.40 1.32 1.27 1.23 1.26 1.25 1.22 1.17 1.34 1.32 1.27 1.13 0.98 1.09 1.17 1.21 1.19 1.16 1.11 1.07 1.08
1.78 1.72 1.65 1.60 1.64 1.60 1.41 1.21 1.01 1.07 1.14 1.24 1.39 1.39 1.28 1.22 1.20 1.25 1.24 1.11 1.28 1.27 1.24 1.20 1.21 1.20 1.32 1.25 1.21 1.16 1.10 1.05 1.02
1.72 1.78 1.78 1.72 1.66 1.62 1.64 1.52 1.26 1.02 1.01 1.08 1.20 1.25 1.28 1.22 1.20 1.13 1.03 1.05 1.19 1.18 1.22 1.25 1.16 1.16 1.18 1.22 1.19 1.12 1.10 1.02 0.97
1.55 1.67 1.71 1.74 1.76 1.67 1.63 1.64 1.56 1.39 1.12 1.05 1.05 1.02 0.98 1.08 1.19 1.11 1.01 1.07 1.25 1.16 1.12 1.25 1.20 1.02 1.01 1.03 1.03 1.06 1.09 1.03 1.05
1.38 1.44 1.55 1.61 1.66 1.74 1.69 1.64 1.61 1.51 1.43 1.22 1.30 1.25 1.12 0.91 1.03 1.12 1.04 1.00 1.11 1.30 1.13 1.21 1.25 1.13 1.01 0.98 0.95 0.97 1.00 1.00 1.01
1.15 1.32 1.44 1.47 1.55 1.61 1.67 1.71 1.64 1.60 1.50 1.36 1.26 1.30 1.22 1.15 1.06 1.10 1.06 0.99 1.06 1.20 1.12 1.21 1.24 1.18 1.05 0.98 0.93 0.91 0.93 0.99 0.98
0.98 1.03 1.22 1.37 1.41 1.52 1.60 1.66 1.71 1.62 1.58 1.45 1.34 1.28 1.30 1.28 1.18 1.18 1.15 1.05 0.99 1.14 1.20 1.31 1.24 1.19 1.10 0.98 0.96 0.88 0.89 0.97 0.94
0.69 0.80 1.01 1.07 1.26 1.41 1.43 1.61 1.64 1.71 1.65 1.52 1.38 1.31 1.35 1.33 1.24 1.17 1.20 1.16 1.08 1.10 1.08 1.34 1.30 1.16 1.12 1.01 0.96 0.88 0.87 0.87 0.92
0.40 0.53 0.68 0.98 0.98 1.17 1.31 1.33 1.36 1.59 1.59 1.53 1.48 1.32 1.33 1.40 1.34 1.18 1.20 1.19 1.07 1.17 1.14 1.15 1.35 1.31 1.15 1.06 1.06 0.91 0.85 0.86 0.86
0.27 0.32 0.40 0.51 0.69 0.89 1.03 1.22 1.28 1.36 1.44 1.56 1.52 1.42 1.33 1.34 1.39 1.30 1.15 1.16 1.09 1.07 1.21 1.12 1.16 1.27 1.28 1.21 1.14 1.07 0.97 0.90 0.87
0.24 0.26 0.27 0.31 0.38 0.52 0.74 0.84 1.11 1.22 1.42 1.53 1.48 1.48 1.43 1.42 1.40 1.36 1.29 1.22 1.13 1.05 1.12 1.15 1.12 1.12 1.12 1.24 1.24 1.14 1.10 1.00 0.92
0.23 0.24 0.25 0.26 0.26 0.29 0.39 0.57 0.79 1.08 1.32 1.31 1.35 1.47 1.43 1.38 1.32 1.33 1.34 1.29 1.21 1.06 1.07 1.13 1.16 1.15 1.02 1.03 1.19 1.23 1.19 1.12 1.05
0.22 0.23 0.24 0.25 0.26 0.26 0.26 0.30 0.42 0.74 1.01 1.11 1.22 1.16 1.28 1.34 1.33 1.33 1.26 1.32 1.29 1.17 1.04 1.11 1.15 1.14 1.11 0.95 1.04 1.14 1.27 1.25 1.17
0.21 0.21 0.22 0.24 0.25 0.25 0.26 0.26 0.28 0.32 0.62 0.94 1.01 1.03 1.01 1.17 1.34 1.29 1.31 1.25 1.24 1.20 1.09 1.00 1.10 1.11 1.07 1.04 0.95 1.01 1.16 1.31 1.28
0.18 0.20 0.21 0.22 0.24 0.24 0.25 0.28 0.28 0.27 0.26 0.46 0.90 0.94 1.03 1.03 1.06 1.24 1.27 1.30 1.26 1.25 1.10 0.97 0.92 1.00 1.03 1.03 1.00 0.94 1.04 1.20 1.31
0.16 0.17 0.18 0.19 0.21 0.22 0.24 0.25 0.26 0.27 0.25 0.27 0.36 0.66 0.86 1.04 1.08 1.06 1.09 1.27 1.29 1.33 1.23 1.10 0.93 0.91 0.99 0.98 0.99 0.93 0.97 1.08 1.20
Wind_Speed
5 5 6 8 9 8 9 9 10 11 11 10 11 10 9 8 8 7 6 6 6 5 5 5 5 6 7 7 7 8 8 9 10
7 7 7 8 10 11 11 11 11 11 12 12 12 12 10 9 9 9 8 7 7 6 6 5 5 6 6 6 6 6 7 7 7
9 8 9 9 10 12 13 13 12 13 13 14 13 13 12 10 10 10 9 9 8 7 7 7 7 7 7 6 5 5 6 6 7
12 11 11 11 11 12 14 15 15 15 16 16 15 14 14 12 12 12 11 11 11 9 9 9 9 9 8 7 6 5 5 5 5
15 14 14 13 13 13 14 16 17 18 18 18 17 16 16 15 14 13 13 13 13 12 11 10 11 11 10 9 7 6 5 5 5
16 18 18 17 17 16 16 17 18 19 20 21 20 19 19 17 17 16 15 15 15 15 14 13 13 13 12 11 9 8 7 6 6
16 17 20 20 20 20 19 19 19 21 22 23 23 23 22 21 20 19 18 18 18 18 17 17 16 16 15 13 12 10 9 8 8
19 18 18 20 24 24 23 23 22 23 24 23 24 24 26 25 24 22 21 20 20 20 21 20 19 17 18 17 16 14 12 10 9
22 22 22 21 22 25 28 27 27 27 26 27 26 26 25 25 25 25 24 23 23 22 22 23 22 21 19 19 18 18 16 14 13
24 25 25 25 25 25 24 29 32 31 30 30 29 28 29 28 28 27 26 25 26 25 23 24 24 24 22 21 21 21 20 18 16
26 26 27 28 29 28 29 29 29 34 35 34 33 32 32 31 30 29 29 28 29 28 26 26 26 26 25 24 22 22 22 20 19
28 29 29 29 30 31 33 33 33 34 35 38 37 36 35 34 33 32 32 31 30 31 30 29 28 27 27 25 24 24 24 23 22
31 31 32 31 32 34 34 35 37 35 39 38 38 39 39 38 36 35 35 34 33 34 33 33 31 29 28 27 27 25 25 24 24
35 35 35 35 36 35 34 33 35 36 36 45 41 38 40 40 40 38 36 37 36 36 36 36 35 33 31 30 29 28 26 26 25
39 39 38 38 38 38 38 37 36 39 38 32 40 40 41 42 41 41 40 38 38 38 38 38 38 38 36 34 32 31 29 28 27
43 43 42 42 41 41 41 40 39 35 33 38 41 39 39 40 42 42 42 42 40 40 41 41 40 39 39 38 36 35 33 31 30
46 46 46 46 45 44 44 43 42 41 39 38 31 35 38 41 43 43 43 43 44 43 43 42 42 42 41 40 40 38 37 35 33
50 50 50 50 49 48 48 47 45 45 43 40 39 36 36 38 42 42 46 46 45 45 46 47 45 44 43 42 42 42 40 38 36
54 54 53 53 53 52 52 51 50 49 48 47 43 42 41 36 36 42 44 45 46 47 47 47 49 48 46 44 43 43 43 42 39
57 57 57 57 56 56 55 55 54 53 53 51 50 50 46 44 39 37 41 43 45 42 48 46 48 50 49 48 46 45 44 44 42
Wind_Direction
248 241 228 220 219 217 213 208 208 204 201 199 195 193 194 194 190 192 181 180 180 175 164 156 145 141 134 118 107 102 101 102 98
255 251 239 235 231 227 222 217 215 214 211 207 204 204 206 213 210 203 205 204 200 199 194 186 175 165 156 142 125 116 109 109 109
257 255 248 243 239 234 230 226 226 222 217 213 212 213 216 220 213 216 217 214 212 211 209 204 196 185 176 168 152 139 128 116 123
259 258 253 249 245 241 236 234 232 227 222 221 221 223 224 227 227 226 226 222 221 220 216 213 208 199 192 186 177 166 155 142 141
260 259 257 252 250 247 244 241 237 233 230 228 229 230 231 232 232 230 229 229 228 226 225 217 210 205 202 198 194 186 181 175 165
266 260 257 256 252 252 249 245 241 238 236 234 234 235 236 238 237 234 235 235 231 229 227 222 215 211 206 208 207 206 205 201 200
271 267 262 257 254 255 252 249 245 242 240 240 239 240 240 241 240 239 241 238 235 233 230 225 222 219 218 217 219 221 219 224 217
273 271 268 266 257 255 254 251 248 246 245 243 242 242 243 243 243 241 241 240 235 237 233 228 226 226 227 228 230 229 226 224 219
273 271 271 268 266 262 255 252 252 250 248 246 245 244 245 243 243 241 243 242 237 238 235 231 229 229 231 232 232 230 229 230 229
275 273 270 269 267 265 263 258 254 252 250 248 247 246 246 246 244 243 244 243 238 239 238 233 231 232 234 235 235 234 233 231 232
277 277 272 269 268 264 265 263 261 254 251 249 250 249 247 247 247 245 244 244 240 238 238 234 235 235 235 236 236 234 232 232 234
279 277 273 273 271 266 267 264 264 259 254 251 249 248 247 249 247 247 245 245 242 239 240 236 236 236 236 236 237 234 234 237 235
280 276 274 276 272 270 268 266 262 263 256 252 251 250 247 246 248 248 246 245 244 241 240 238 237 237 237 237 236 235 237 236 236
279 277 275 274 272 271 270 268 264 263 263 253 249 251 249 248 246 246 247 245 245 242 241 239 238 238 239 238 237 237 238 237 237
278 276 276 275 273 270 270 269 268 263 258 264 246 252 251 249 246 246 246 245 245 243 241 240 239 239 239 239 238 238 238 238 238
277 276 275 274 272 271 269 267 266 266 262 263 256 247 252 247 247 247 246 245 245 243 241 241 240 240 239 239 239 239 239 239 239
276 275 274 273 271 270 269 268 265 260 262 259 262 255 250 251 247 247 247 245 247 244 241 240 240 239 240 239 239 239 239 240 240
275 274 273 272 270 269 268 266 265 262 259 258 259 258 260 255 251 246 246 248 247 246 243 240 239 239 240 239 240 240 239 239 240
275 273 272 270 269 267 266 265 263 262 259 258 254 256 257 257 256 251 249 247 248 246 244 242 240 239 239 240 240 240 239 238 239
275 273 271 269 268 266 265 264 262 261 259 256 256 255 255 252 255 253 251 250 246 246 242 243 242 239 239 240 240 240 239 237 238